STARLINK-38199, 100218

Orbit data source: Space-Track

STARLINK-38199, 100218 is a payload satellite owned by SpaceX/Seattle (US) in SSO that was launched on Tue, 04 Aug 2026 UTC launched from the Air Force Western Test Range (AFWTR). Payload-class satellites include a variety of spacecraft equipped with specific instruments for various scientific and technological missions. These include communications satellites like Starlink; space stations such as the ISS; scientific satellites like the Hubble; Earth observation satellites from companies like Planet Labs, Umbra, and HawkEye 360; GPS; miniature CubeSats for education and research; and military/defense satellites.

Loading next visibility...
Identifier
100218, 2026-177F
Orbit
SSO
Country
Flag of USUS
Related business
Manufacturer
SpaceX/Seattle
Mission
Operational spacecraft
Bus & Motor
STARLINK V2MO, Unknown motor
Mass
575 kg wet, ~530 kg dry
Launch date (UTC)
2026-08-04 (1 month ago)
Launch vehicle
Unknown
Launch site
Air Force Western Test Range (AFWTR)
Object type
Payload
Rocket body
Debris
Shape & HBR
BOX + PAN, 17.7 m
Radar Cross Section
Large (>1 m²)

Expand to show TLE details & history
Last TLE update: 6 hours ago

TLE from 6 hours ago
0 STARLINK-38199
1 A0218U 26177F   26255.95576079 -.00440676  00000-0 -81105-2 0  9998
2 A0218  97.2837 306.6957 0003270  25.0896 335.0514 15.50712827  6192
Epoch: 2026-09-12T22:56Z
TLE epoch observation values (Epoch: 2026-09-12T22:56:17.732Z)
Latitude
-0.00005°
Longitude
-29.33551°
Altitude
415.765 km
Speed
7.663 km/s
True Right ascension
20h 26m 46s
True Declination
0° 00' 00"
Sunlit
Object was in full shadow at epoch
Visualization orbit readout
Latitude
Unknown
Longitude
Unknown
Altitude
Unknown
Speed
Unknown
Apparent Right ascension
Unknown
Apparent Declination
Unknown
Sunlit
N/A
Visualization observer readout
Local Sidereal Time
21:52:29
Azimuth
Unknown
Elevation
Unknown
Doppler factor
Unknown
Orbital elements
Apogee altitude
413.784 km
Perigee altitude
409.343 km
Semi-major axis
6,789.7 km
Eccentricity
0.00033
Inclination
97.2837°
RAAN
306.6957°
Arg. of periapsis
25.0896°
True anomaly
335.03559°
Mean anomaly
335.0514°
Eccentric anomaly
335.04349°
Mean motion
3.87942 °/min
Orbital period
92.8 mins
BSTAR
-0.0081105
Loading maneuver chart data...
Computing Atmospheric mass density...
Loading historical data...
Loading historical data...
Loading historical data...
Loading historical data...
Loading historical data...
Loading historical data...
Loading historical data...

Documentation

Showing up to 5 results
|